This demonstration page uses our WeatherBlox Daily Observations layout. Learn more.

Left ArrowRight Arrow

39.01783, -85.05884

Hourly Observations for March 29, 2017

Temp ( °F °C ) Dew Point ( °F °C ) Humidity (%) Winds ( mph kmh ) Pressure ( in mb ) Visibility ( mi km ) Precip ( " mm )
12:52 am 00:52 Cloudy 52 11.1 47 8.3 83 83 NNE 10 17 30.12 1020 8 13 0.00 0.00
1:52 am 01:52 Cloudy 52 11.1 47 8.3 83 83 NNE 10 17 30.11 1020 8 13 0.00 0.00
2:33 am 02:33 Cloudy 51 10.6 46 7.8 83 83 NNE 12 19 30.12 1020 9 14 0.00 0.00
2:52 am 02:52 Cloudy 51 10.6 46 7.8 83 83 NE 13 20 30.11 1020 9 14 0.00 0.00
3:35 am 03:35 Cloudy 50 10 45 7.2 83 83 ENE 13 20 30.12 1020 10 16 0.00 0.00
3:52 am 03:52 Cloudy 50 10 45 7.2 83 83 ENE 13 20 30.11 1020 10 16 0.00 0.00
4:52 am 04:52 Cloudy 49 9.4 44 6.7 83 83 NE 12 19 30.12 1020 10 16 0.00 0.00
5:52 am 05:52 Cloudy 47 8.3 43 6.1 86 86 NE 14 22 30.13 1020 10 16 0.00 0.00
6:52 am 06:52 Cloudy 46 7.8 39 3.9 77 77 NE 12 19 30.15 1021 10 16 0.00 0.00
7:52 am 07:52 Cloudy 45 7.2 39 3.9 80 80 ENE 13 20 30.16 1021 10 16 0.00 0.00
8:52 am 08:52 Partly Cloudy 46 7.8 39 3.9 77 77 ENE 12 19 30.17 1022 10 16 0.00 0.00
9:52 am 09:52 Partly Cloudy 48 8.9 38 3.3 68 68 NE 13 20 30.18 1022 10 16 0.00 0.00
10:52 am 10:52 Mostly Sunny 50 10 38 3.3 63 63 NE 10 17 30.18 1022 10 16 0.00 0.00
11:52 am 11:52 Partly Cloudy 51 10.6 39 3.9 64 64 ENE 12 19 30.16 1022 10 16 0.00 0.00
12:52 pm 12:52 Partly Cloudy 52 11.1 41 5 66 66 NE 10 17 30.18 1022 10 16 0.00 0.00
1:52 pm 13:52 Partly Cloudy 53 11.7 42 5.6 66 66 VRB 3 6 30.17 1022 10 16 0.00 0.00
1:58 pm 13:58 Mostly Cloudy 54 12 43 6 67 67 ENE 5 7 30.18 1022 10 16 0.00 0.00
2:52 pm 14:52 Cloudy 54 12.2 44 6.7 69 69 E 9 15 30.15 1021 10 16 0.00 0.00
3:52 pm 15:52 Mostly Cloudy 56 13.3 44 6.7 65 65 ENE 15 24 30.10 1019 10 16 0.00 0.00
4:07 pm 16:07 Mostly Cloudy 57 13.9 46 7.8 67 67 E 9 15 30.12 1020 10 16 0.00 0.00
4:52 pm 16:52 Partly Cloudy 57 13.9 45 7.2 64 64 ENE 14 22 30.10 1019 10 16 0.00 0.00
5:52 pm 17:52 Mostly Cloudy 58 14.4 46 7.8 65 65 E 10 17 30.07 1018 10 16 0.00 0.00
6:52 pm 18:52 Mostly Cloudy 56 13.3 46 7.8 70 70 E 13 20 30.06 1018 10 16 0.00 0.00
7:52 pm 19:52 Mostly Cloudy 55 12.8 45 7.2 69 69 ENE 14 22 30.06 1018 10 16 0.00 0.00
8:52 pm 20:52 Partly Cloudy 54 12.2 44 6.7 69 69 ENE 9 15 30.07 1018 10 16 0.00 0.00
9:52 pm 21:52 Mostly Clear 52 11.1 44 6.7 75 75 E 10 17 30.06 1018 10 16 0.00 0.00
10:52 pm 22:52 Mostly Cloudy 53 11.7 44 6.7 72 72 ESE 14 22 30.02 1017 10 16 0.00 0.00
11:52 pm 23:52 Mostly Clear 53 11.7 43 6.1 69 69 ESE 12 19 30.00 1016 10 16 0.00 0.00

Powered by AerisWeather